GW4589 Weather Reports


time (UTC)temp
F
wind
direction
speed
knots
gust
knots
rain 1hr
in
rain 24hr
in
rain mn
in
humidity
%
barometer
mb
20260505004332 51 179 0.0 0.9 0.00 0.04 0.04 79 1011.4
20260505003830 52 178 0.0 0.0 0.00 0.04 0.04 77 1011.4
20260505003327 51 184 3.5 3.5 0.05 0.04 0.04 75 1011.3
20260505002822 52 178 0.0 0.0 0.05 0.04 0.04 80 1011.2
20260505002320 53 174 0.0 0.0 0.07 0.03 0.03 76 1011.5
20260505001818 53 181 0.9 0.9 0.07 0.03 0.03 73 1011.8
20260505001315 54 177 0.9 0.9 0.05 0.02 0.02 70 1011.6
20260505000812 55 186 0.0 0.0 0.05 0.02 0.02 68 1011.3
20260505000310 56 177 0.0 0.0 0.00 0.01 0.01 64 1011.5
20260504235806 57 196 0.9 1.7 0.00 0.01 0.01 57 1011.3
20260504235304 58 179 0.0 0.0 0.00 0.01 0.01 57 1011.1
20260504234800 60 164 1.7 1.7 0.00 0.01 0.01 48 1010.8
20260504234258 61 234 2.6 3.5 0.00 0.01 0.01 45 1010.9
20260504233754 61 191 0.9 0.9 0.00 0.01 0.01 45 1010.4
20260504233249 61 197 0.0 0.9 0.00 0.01 0.01 45 1010.5
20260504232746 62 190 0.0 0.0 0.00 0.01 0.01 44 1010.4
20260504232243 62 191 0.0 0.0 0.00 0.01 0.01 44 1010.1
20260504231740 62 188 0.9 0.9 0.00 0.01 0.01 43 1010.2
20260504231237 62 187 0.0 0.9 0.00 0.01 0.01 42 1010.1
20260504230732 62 230 0.0 0.9 0.00 0.01 0.01 42 1009.9
20260504230231 62 205 0.0 0.0 0.00 0.01 0.01 43 1009.9
20260504225729 62 214 0.9 1.7 0.00 0.01 0.01 42 1009.8
20260504225225 63 237 0.9 0.9 0.00 0.01 0.01 42 1009.8
20260504224723 63 327 2.6 2.6 0.00 0.01 0.01 42 1009.8
20260504224220 63 245 1.7 1.7 0.00 0.01 0.01 42 1009.8
20260504223716 62 298 0.9 0.9 0.00 0.01 0.01 43 1009.8
20260504223211 62 194 0.0 0.0 0.00 0.01 0.01 43 1009.7
20260504222709 62 241 1.7 3.5 0.00 0.01 0.01 43 1009.7
20260504222205 62 212 0.9 0.9 0.00 0.01 0.01 43 1009.5
20260504221703 62 247 1.7 2.6 0.00 0.01 0.01 42 1009.8
20260504221200 63 336 1.7 2.6 0.00 0.01 0.01 42 1009.8
20260504220656 63 241 0.9 1.7 0.00 0.01 0.01 42 1009.8
20260504220154 63 324 3.5 5.2 0.00 0.01 0.01 42 1009.7
20260504215650 63 240 2.6 3.5 0.00 0.01 0.01 43 1010.0
20260504215147 62 291 2.6 3.5 0.00 0.01 0.01 43 1010.2
20260504214643 62 174 1.7 1.7 0.00 0.01 0.01 45 1010.4
20260504214139 62 227 2.6 3.5 0.00 0.01 0.01 44 1010.4
20260504213636 62 228 0.9 0.9 0.00 0.01 0.01 47 1010.5
20260504213133 62 207 0.9 0.9 0.00 0.01 0.01 49 1010.6
20260504212629 61 201 0.9 1.7 0.00 0.01 0.01 51 1010.4
20260504212126 60 304 0.9 0.9 0.00 0.01 0.01 53 1010.4
20260504211624 60 201 0.9 0.9 0.00 0.01 0.01 51 1010.4
20260504211120 59 100 0.9 0.9 0.00 0.01 0.01 52 1010.1
20260504210618 59 176 0.0 0.0 0.07 0.01 0.01 54 1010.4
20260504210114 59 53 1.7 2.6 0.07 0.01 0.01 51 1010.5
20260504205612 58 48 3.5 3.5 0.07 0.01 0.01 56 1011.1
20260504205109 60 274 2.6 3.5 0.00 0.00 0.00 49 1011.2
20260504204608 61 287 4.3 5.2 0.00 0.00 0.00 44 1011.2
20260504204106 61 230 1.7 2.6 0.00 0.00 0.00 46 1011.4
20260504203604 61 185 0.9 0.9 0.00 0.00 0.00 45 1011.4
20260504203101 60 180 0.0 0.0 0.00 0.00 0.00 46 1011.5
20260504202556 60 55 2.6 3.5 0.00 0.00 0.00 45 1011.2
20260504202054 61 58 1.7 1.7 0.00 0.00 0.00 46 1011.4
20260504201550 61 29 2.6 3.5 0.00 0.00 0.00 45 1011.4
20260504201048 61 42 4.3 6.1 0.00 0.00 0.00 44 1011.3
20260504200544 61 65 1.7 2.6 0.00 0.00 0.00 44 1011.2
20260504200042 61 26 7.0 8.7 0.00 0.00 0.00 45 1011.2
20260504195538 60 332 1.7 1.7 0.00 0.00 0.00 49 1011.2
20260504195034 60 288 2.6 5.2 0.00 0.00 0.00 46 1011.3
20260504194531 62 207 1.7 2.6 0.00 0.00 0.00 44 1011.1
20260504194026 63 204 0.0 0.9 0.00 0.00 0.00 40 1010.7
20260504193523 63 357 2.6 2.6 0.00 0.00 0.00 37 1010.9
20260504193022 65 286 1.7 5.2 0.00 0.00 0.00 35 1010.6
20260504192520 66 238 1.7 1.7 0.00 0.00 0.00 34 1010.2
20260504192018 66 168 0.0 0.0 0.00 0.00 0.00 34 1010.0
20260504191515 66 233 0.9 1.7 0.00 0.00 0.00 33 1010.1
20260504191011 66 177 0.0 0.0 0.00 0.00 0.00 33 1009.8
20260504190507 66 118 1.7 1.7 0.00 0.00 0.00 33 1009.5
20260504190003 66 178 0.0 0.9 0.00 0.00 0.00 31 1009.5
20260504185501 67 208 1.7 2.6 0.00 0.00 0.00 31 1009.5
20260504184957 69 260 4.3 7.0 0.00 0.00 0.00 28 1009.9
20260504184452 70 238 1.7 1.7 0.00 0.00 0.00 27 1009.2
20260504183948 70 174 1.7 1.7 0.00 0.00 0.00 28 1009.0
20260504183446 70 180 1.7 1.7 0.00 0.00 0.00 30 1009.1
20260504182944 70 193 0.0 0.9 0.00 0.00 0.00 29 1009.2
20260504182440 70 170 0.9 0.9 0.00 0.00 0.00 29 1009.3
20260504181938 70 178 1.7 1.7 0.00 0.00 0.00 29 1009.4
20260504181434 71 184 0.0 0.9 0.00 0.00 0.00 28 1009.3
20260504180933 72 196 0.9 0.9 0.00 0.00 0.00 27 1009.4
20260504180432 73 223 0.0 0.9 0.00 0.00 0.00 26 1009.2
20260504175930 73 161 0.0 0.9 0.00 0.00 0.00 26 1009.3
20260504175426 73 180 0.0 0.9 0.00 0.00 0.00 27 1009.1
20260504174924 74 203 0.9 1.7 0.00 0.00 0.00 26 1009.2
20260504174421 73 178 0.0 0.9 0.00 0.00 0.00 27 1009.2
20260504173919 73 206 1.7 1.7 0.00 0.00 0.00 26 1009.4
20260504173415 73 209 1.7 1.7 0.00 0.00 0.00 26 1009.5
20260504172913 73 221 0.9 1.7 0.00 0.00 0.00 26 1009.7
20260504172408 73 181 0.9 1.7 0.00 0.00 0.00 25 1009.5
20260504171905 73 216 1.7 2.6 0.00 0.00 0.00 25 1009.7
20260504171402 74 254 2.6 2.6 0.00 0.00 0.00 25 1009.5
20260504170859 74 240 2.6 2.6 0.00 0.00 0.00 25 1009.4
20260504170355 73 157 0.9 1.7 0.00 0.00 0.00 27 1009.7
20260504160314 68 177 0.0 0.0 0.00 0.00 0.00 33 1009.9
20260504150739 62 133 0.9 1.7 0.00 0.00 0.00 40 1010.1
20260504150236 60 149 0.9 0.9 0.00 0.00 0.00 41 1010.2
20260504141205 54 185 0.0 0.0 0.00 0.00 0.00 54 1010.6
20260504140702 54 169 0.0 0.0 0.00 0.00 0.00 54 1010.6
20260504140157 53 168 0.0 0.0 0.00 0.00 0.00 53 1010.6
20260504130626 44 177 0.0 0.0 0.00 0.00 0.00 66 1010.7
20260504130123 43 180 0.0 0.0 0.00 0.00 0.00 71 1010.6
20260504110514 40 204 0.0 0.0 0.00 0.00 0.00 71 1010.6
20260504100436 40 204 0.0 0.0 0.00 0.00 0.00 68 1011.1
20260504081829 44 204 0.0 0.0 0.00 0.00 0.00 60 1011.6
20260504081326 44 204 0.0 0.0 0.00 0.00 0.00 60 1011.9
20260504080822 45 204 0.0 0.0 0.00 0.00 0.00 58 1011.8
20260504080319 45 204 0.0 0.0 0.00 0.00 0.00 58 1011.9
20260504070246 50 204 0.0 0.0 0.00 0.00 0.00 50 1012.7
20260504060207 53 204 0.0 0.0 0.00 0.00 0.00 44 1013.2
20260504050635 56 179 0.0 0.9 0.00 0.00 0.00 39 1013.3
20260504050132 57 222 0.0 0.9 0.00 0.00 0.00 39 1013.0
20260504045629 57 189 0.9 0.9 0.00 0.00 0.00 38 1013.0
20260504045129 57 216 0.9 0.9 0.00 0.00 0.00 38 1012.9
20260504044627 58 166 0.0 0.0 0.00 0.00 0.00 37 1013.2
20260504044123 58 288 0.9 2.6 0.00 0.00 0.00 37 1013.3
20260504043621 59 195 0.9 0.9 0.00 0.00 0.00 37 1013.2
20260504043118 59 182 0.0 0.0 0.00 0.00 0.00 37 1013.0
20260504042615 59 148 0.0 0.9 0.00 0.00 0.00 37 1013.0
20260504042112 59 210 0.0 0.9 0.00 0.00 0.00 36 1013.3
20260504041607 60 191 0.0 0.9 0.00 0.00 0.00 35 1013.2
20260504041104 60 306 1.7 2.6 0.00 0.00 0.00 34 1013.0
20260504040601 61 205 1.7 1.7 0.00 0.00 0.00 33 1013.4
20260504040058 62 185 0.0 0.9 0.00 0.00 0.00 32 1013.0
20260504035555 62 56 1.7 2.6 0.00 0.00 0.00 32 1012.9
20260504035051 62 189 0.9 0.9 0.00 0.00 0.00 31 1013.2
20260504034549 61 176 0.9 0.9 0.00 0.00 0.00 30 1013.4
20260504034045 61 175 0.9 0.9 0.00 0.00 0.00 31 1013.2
20260504033544 61 200 0.9 0.9 0.00 0.00 0.00 33 1013.0
20260504033040 62 188 0.0 0.0 0.00 0.00 0.00 33 1013.0
20260504032538 62 205 0.9 0.9 0.00 0.00 0.00 33 1012.7
20260504032034 62 184 0.0 0.0 0.00 0.00 0.00 33 1012.8
20260504031531 62 183 0.0 0.0 0.00 0.00 0.00 32 1012.5
20260504031027 63 178 0.0 0.0 0.00 0.00 0.00 33 1012.5
20260504030525 63 239 0.9 0.9 0.00 0.00 0.00 32 1012.3
20260504030021 62 183 0.0 0.0 0.00 0.00 0.00 33 1012.3
20260504025518 61 186 0.0 0.9 0.00 0.00 0.00 35 1012.5
20260504025015 60 11 3.5 3.5 0.00 0.00 0.00 39 1012.2
20260504024512 61 189 0.0 0.0 0.00 0.00 0.00 38 1011.9
20260504024009 61 182 0.0 0.0 0.00 0.00 0.00 37 1011.8
20260504023505 61 184 0.0 0.0 0.00 0.00 0.00 37 1012.0
20260504023001 61 183 0.0 0.0 0.00 0.00 0.00 36 1012.0
20260504022457 62 184 0.0 0.0 0.00 0.00 0.00 36 1012.0
20260504021954 62 182 0.0 0.0 0.00 0.00 0.00 36 1012.0
20260504021451 63 186 0.0 0.0 0.00 0.00 0.00 34 1011.9
20260504020948 64 182 0.0 0.0 0.00 0.00 0.00 33 1011.9
20260504020445 64 188 0.0 0.0 0.00 0.00 0.00 33 1012.0
20260504015942 65 188 0.0 0.0 0.00 0.00 0.00 32 1011.8
20260504015438 66 182 0.0 0.0 0.00 0.00 0.00 31 1012.1
20260504014934 67 180 0.0 0.0 0.00 0.00 0.00 30 1011.5
20260504014430 68 187 0.0 0.0 0.00 0.00 0.00 29 1011.9
20260504013927 68 172 0.0 0.0 0.00 0.00 0.00 27 1011.9
20260504013426 68 179 0.0 0.0 0.00 0.00 0.00 27 1011.6
20260504012926 68 185 0.9 0.9 0.00 0.00 0.00 28 1011.8
20260504012425 68 179 0.0 0.0 0.00 0.00 0.00 27 1012.0
20260504011922 69 168 0.9 0.9 0.00 0.00 0.00 26 1011.9
20260504011419 68 122 0.0 0.0 0.00 0.00 0.00 29 1011.9
20260504010914 68 193 0.0 0.0 0.00 0.00 0.00 28 1012.1
20260504010411 68 191 0.0 0.0 0.00 0.00 0.00 27 1012.1
20260504005907 69 179 0.0 0.0 0.00 0.00 0.00 27 1011.9
20260504005403 69 173 0.0 0.9 0.00 0.00 0.00 27 1012.0
20260504004901 68 178 0.0 0.0 0.00 0.00 0.00 26 1011.9